FW0884 Weather Reports


time (UTC)temp
F
wind
direction
speed
knots
gust
knots
rain 1hr
in
rain 24hr
in
rain mn
in
humidity
%
barometer
mb
20260504214021 62 188 5.2 9.6 0.00 0.00 0.00 57 1009.4
20260504213521 62 182 4.3 11.3 0.00 0.00 0.00 57 1009.4
20260504213021 63 170 5.2 11.3 0.00 0.00 0.00 56 1009.4
20260504212521 63 226 3.5 11.3 0.00 0.00 0.00 56 1009.2
20260504212024 63 224 5.2 10.4 0.00 0.00 0.00 56 1009.2
20260504211520 63 193 5.2 8.7 0.00 0.00 0.00 56 1009.3
20260504211019 63 210 5.2 8.7 0.00 0.00 0.00 55 1009.2
20260504210519 63 184 5.2 9.6 0.00 0.00 0.00 55 1009.2
20260504210019 64 196 5.2 10.4 0.00 0.00 0.00 55 1009.3
20260504205519 64 251 5.2 10.4 0.00 0.00 0.00 54 1009.3
20260504205019 64 198 4.3 8.7 0.00 0.00 0.00 54 1009.3
20260504204531 64 186 4.3 9.6 0.00 0.00 0.00 54 1009.3
20260504204018 64 192 7.0 9.6 0.00 0.00 0.00 53 1009.2
20260504203517 65 209 6.1 10.4 0.00 0.00 0.00 52 1009.2
20260504203017 65 186 5.2 10.4 0.00 0.00 0.00 52 1009.2
20260504202517 65 134 6.1 12.2 0.00 0.00 0.00 53 1009.2
20260504202016 65 209 6.1 13.9 0.00 0.00 0.00 51 1009.2
20260504201516 65 208 5.2 13.9 0.00 0.00 0.00 53 1009.2
20260504201017 65 155 6.1 13.0 0.00 0.00 0.00 53 1009.2
20260504200516 65 173 5.2 13.9 0.00 0.00 0.00 52 1009.3
20260504200015 65 132 5.2 13.9 0.00 0.00 0.00 52 1009.2
20260504195514 66 175 4.3 10.4 0.00 0.00 0.00 51 1009.4
20260504195015 67 192 5.2 8.7 0.00 0.00 0.00 49 1009.4
20260504194515 67 191 4.3 10.4 0.00 0.00 0.00 48 1009.4
20260504194014 67 245 4.3 11.3 0.00 0.00 0.00 48 1009.5
20260504193515 67 215 5.2 9.6 0.00 0.00 0.00 49 1009.5
20260504193015 67 187 3.5 9.6 0.00 0.00 0.00 49 1009.4
20260504192514 68 188 4.3 7.8 0.00 0.00 0.00 49 1009.3
20260504192013 68 238 2.6 9.6 0.00 0.00 0.00 48 1009.4
20260504191513 68 209 5.2 9.6 0.00 0.00 0.00 49 1009.3
20260504191012 68 262 5.2 11.3 0.00 0.00 0.00 46 1009.3
20260504190516 67 202 6.1 11.3 0.00 0.00 0.00 47 1009.4
20260504190012 68 204 6.1 9.6 0.00 0.00 0.00 45 1009.6
20260504185510 68 226 6.1 10.4 0.00 0.00 0.00 45 1009.6
20260504185012 68 130 4.3 8.7 0.00 0.00 0.00 45 1009.6
20260504184510 68 178 3.5 9.6 0.00 0.00 0.00 46 1009.7
20260504184013 68 217 6.1 9.6 0.00 0.00 0.00 46 1009.8
20260504183509 68 220 4.3 10.4 0.00 0.00 0.00 48 1009.7
20260504183008 68 197 6.1 10.4 0.00 0.00 0.00 46 1009.7
20260504182509 68 159 5.2 14.8 0.00 0.00 0.00 45 1009.8
20260504182007 68 188 5.2 14.8 0.00 0.00 0.00 45 1009.7
20260504181506 68 201 4.3 10.4 0.00 0.00 0.00 48 1009.9
20260504181007 68 207 4.3 8.7 0.00 0.00 0.00 46 1009.9
20260504180506 68 238 4.3 8.7 0.00 0.00 0.00 48 1010.0
20260504180005 68 181 3.5 8.7 0.00 0.00 0.00 48 1010.0
20260504175504 67 203 6.1 12.2 0.00 0.00 0.00 46 1010.2
20260504175006 67 184 5.2 12.2 0.00 0.00 0.00 47 1010.2
20260504174505 67 200 4.3 10.4 0.00 0.00 0.00 47 1010.2
20260504174004 68 186 4.3 10.4 0.00 0.00 0.00 45 1010.2
20260504173504 68 209 5.2 8.7 0.00 0.00 0.00 45 1010.1
20260504173003 67 207 4.3 13.0 0.00 0.00 0.00 44 1010.1
20260504172502 68 205 6.1 12.2 0.00 0.00 0.00 43 1010.2
20260504172002 68 188 6.1 9.6 0.00 0.00 0.00 43 1010.3
20260504171506 68 232 4.3 13.9 0.00 0.00 0.00 40 1010.4
20260504171003 68 223 7.0 13.9 0.00 0.00 0.00 41 1010.4
20260504170500 68 202 6.1 15.6 0.00 0.00 0.00 39 1010.4
20260504151048 66 210 7.0 13.0 0.00 0.00 0.00 40 1011.7
20260504150548 66 225 6.1 11.3 0.00 0.00 0.00 40 1011.6
20260504141038 62 218 7.0 13.0 0.00 0.00 0.00 44 1012.0
20260504140537 62 191 5.2 10.4 0.00 0.00 0.00 45 1012.1
20260504130525 58 200 4.3 8.7 0.00 0.00 0.00 51 1012.5
20260504110556 48 199 3.5 6.1 0.00 0.00 0.00 66 1012.6
20260504100546 46 238 0.9 3.5 0.00 0.00 0.00 67 1012.2
20260504081535 46 217 0.0 2.6 0.00 0.00 0.00 68 1011.9
20260504081033 46 224 0.9 2.6 0.00 0.00 0.00 68 1011.8
20260504080535 46 223 0.9 1.7 0.00 0.00 0.00 68 1011.7
20260504050506 43 301 0.0 0.0 0.00 0.00 0.00 70 1011.1
20260504050006 43 302 0.0 0.0 0.00 0.00 0.00 70 1011.2
20260504045504 43 302 0.0 0.0 0.00 0.00 0.00 70 1011.1
20260504045004 43 302 0.0 0.0 0.00 0.00 0.00 70 1011.2
20260504044506 43 307 0.0 0.0 0.00 0.00 0.00 69 1011.2
20260504044004 43 307 0.0 0.0 0.00 0.00 0.00 69 1011.1
20260504043509 43 307 0.0 0.0 0.00 0.00 0.00 69 1011.2
20260504043004 43 307 0.0 0.0 0.00 0.00 0.00 69 1011.2
20260504042503 43 307 0.0 0.0 0.00 0.00 0.00 69 1011.3
20260504042002 43 307 0.0 0.0 0.00 0.00 0.00 69 1011.3
20260504041502 44 307 0.0 0.0 0.00 0.00 0.00 69 1011.2
20260504041001 44 307 0.0 0.0 0.00 0.00 0.00 69 1011.3
20260504040602 44 307 0.0 0.0 0.00 0.00 0.00 68 1011.3
20260504040104 44 307 0.0 0.0 0.00 0.00 0.00 68 1011.2
20260504035558 44 307 0.0 0.0 0.00 0.00 0.00 68 1011.1
20260504035058 44 307 0.0 0.0 0.00 0.00 0.00 68 1011.1
20260504034615 44 307 0.0 0.0 0.00 0.00 0.00 68 1011.1
20260504034100 44 307 0.0 0.0 0.00 0.00 0.00 68 1011.1
20260504033557 44 307 0.0 0.0 0.00 0.00 0.00 67 1011.1
20260504033103 44 307 0.0 0.0 0.00 0.00 0.00 67 1010.9
20260504032557 45 307 0.0 0.0 0.00 0.00 0.00 67 1011.0
20260504032056 45 307 0.0 0.0 0.00 0.00 0.00 66 1011.0
20260504031603 45 307 0.0 0.0 0.00 0.00 0.00 66 1011.1
20260504031059 45 307 0.0 0.0 0.00 0.00 0.00 66 1011.0
20260504030556 45 307 0.0 0.0 0.00 0.00 0.00 66 1010.9
20260504030054 45 307 0.0 0.0 0.00 0.00 0.00 65 1011.0
20260504025554 46 307 0.0 0.0 0.00 0.00 0.00 66 1011.0
20260504025054 46 307 0.0 0.0 0.00 0.00 0.00 65 1011.0
20260504024557 46 307 0.0 0.0 0.00 0.00 0.00 65 1010.9
20260504024054 46 307 0.0 0.0 0.00 0.00 0.00 63 1010.9
20260504023554 46 307 0.0 0.0 0.00 0.00 0.00 62 1010.8
20260504023054 47 307 0.0 0.0 0.00 0.00 0.00 62 1010.9
20260504022554 47 307 0.0 0.0 0.00 0.00 0.00 62 1010.9
20260504022055 47 307 0.0 0.0 0.00 0.00 0.00 62 1010.8
20260504021557 47 307 0.0 0.0 0.00 0.00 0.00 62 1010.9
20260504021053 48 307 0.0 0.0 0.00 0.00 0.00 62 1010.9
20260504020555 48 307 0.0 0.0 0.00 0.00 0.00 60 1010.9
20260504015551 49 307 0.0 0.0 0.00 0.00 0.00 59 1010.9
20260504015050 49 307 0.0 0.0 0.00 0.00 0.00 60 1010.8
20260504014553 49 307 0.0 0.0 0.00 0.00 0.00 60 1010.8
20260504014049 49 307 0.0 0.0 0.00 0.00 0.00 61 1010.8
20260504013548 50 307 0.0 0.0 0.00 0.00 0.00 60 1010.7
20260504013050 50 307 0.0 0.0 0.00 0.00 0.00 59 1010.5
20260504012552 50 307 0.0 0.0 0.00 0.00 0.00 58 1010.5
20260504012048 50 307 0.0 0.0 0.00 0.00 0.00 58 1010.5
20260504011548 51 307 0.0 0.0 0.00 0.00 0.00 58 1010.5
20260504011048 51 307 0.0 0.0 0.00 0.00 0.00 58 1010.4
20260504010545 51 307 0.0 0.0 0.00 0.00 0.00 56 1010.3
20260504010044 51 307 0.0 0.0 0.00 0.00 0.00 53 1010.2
20260504005544 51 307 0.0 0.0 0.00 0.00 0.00 52 1010.1
20260504005043 52 307 0.0 0.0 0.00 0.00 0.00 52 1010.0
20260504004543 52 307 0.0 0.0 0.00 0.00 0.00 51 1009.9
20260504004043 52 307 0.0 0.0 0.00 0.00 0.00 51 1009.8
20260504003542 52 307 0.0 0.9 0.00 0.00 0.00 51 1009.8
20260504003046 52 307 0.0 0.9 0.00 0.00 0.00 50 1009.7
20260504002545 53 307 0.0 0.0 0.00 0.00 0.00 49 1009.7
20260504002042 53 307 0.0 0.9 0.00 0.00 0.00 48 1009.4
20260504001542 53 307 0.0 0.9 0.00 0.00 0.00 47 1009.6
20260504001042 53 307 0.0 0.9 0.00 0.00 0.00 46 1009.4
20260504000544 54 307 0.0 0.9 0.00 0.00 0.00 45 1009.3
20260504000046 54 307 0.0 1.7 0.00 0.00 0.00 44 1009.3
20260503235540 54 307 0.0 2.6 0.00 0.00 0.00 44 1009.2
20260503235040 54 258 0.0 3.5 0.00 0.00 0.00 43 1009.2
20260503234540 54 277 0.9 3.5 0.00 0.00 0.00 44 1009.2
20260503234042 54 224 0.0 2.6 0.00 0.00 0.00 43 1009.2
20260503233543 55 224 0.9 2.6 0.00 0.00 0.00 43 1009.1
20260503233039 55 301 0.9 4.3 0.00 0.00 0.00 42 1009.0
20260503232539 55 219 0.0 4.3 0.00 0.00 0.00 41 1009.0
20260503232039 55 273 1.7 3.5 0.00 0.00 0.00 41 1008.8
20260503231539 55 234 0.9 6.1 0.00 0.00 0.00 40 1008.9
20260503231039 55 275 0.9 6.1 0.00 0.00 0.00 39 1009.0
20260503230539 55 231 0.0 4.3 0.00 0.00 0.00 39 1008.9
20260503230054 55 221 1.7 5.2 0.00 0.00 0.00 41 1008.9
20260503225539 55 224 0.9 5.2 0.00 0.00 0.00 42 1008.9
20260503225038 55 311 1.7 4.3 0.00 0.00 0.00 41 1008.9
20260503224539 55 295 0.9 6.1 0.00 0.00 0.00 41 1008.9
20260503224038 55 264 1.7 6.1 0.00 0.00 0.00 42 1008.8
20260503223538 55 271 1.7 6.1 0.00 0.00 0.00 41 1008.8
20260503223037 55 259 0.9 7.0 0.00 0.00 0.00 42 1008.7
20260503222537 55 322 0.9 11.3 0.00 0.00 0.00 43 1008.8
20260503222042 56 239 2.6 11.3 0.00 0.00 0.00 43 1008.8
20260503221537 56 313 3.5 10.4 0.00 0.00 0.00 43 1008.8
20260503221037 56 278 3.5 10.4 0.00 0.00 0.00 45 1008.8
20260503220537 56 245 0.9 10.4 0.00 0.00 0.00 43 1008.7
20260503220036 56 304 3.5 10.4 0.00 0.00 0.00 44 1008.7
20260503215535 56 285 2.6 13.0 0.00 0.00 0.00 43 1008.6
20260503215036 56 294 3.5 13.0 0.00 0.00 0.00 41 1008.7
20260503214541 56 298 4.3 13.0 0.00 0.00 0.00 41 1008.6